Location: Great Malvern
(52.1167°N, 2.3167°W)
Time: 15:56:36
(UTC+00:00)

Cosmos 1536 Rocket - Pass Details

Date: 18 September 2020
Orbit: 606 x 631 km, 82.5° (Epoch: 20 October)

Event Time Altitude Azimuth Distance (km) Brightness Sun altitude
Rises 20:08:00 0° 347° (NNW) 2,914 7.6 -17.4°
Reaches altitude 10° 20:10:15 10° 344° (NNW) 2,007 6.8 -17.7°
Maximum altitude 20:14:39 66° 264° (W) 690 3.9 -18.3°
Enters shadow 20:18:27 14° 183° (S) 1,766 5.6 -18.8°
